Flag for Switzerland Weather past 2 weeks in Stäfa, Zurich, Switzerland

Now
69 °F

Mild.


Feels Like: 69 °F
Forecast: 56 / 69 °F
Wind: 2 mph from East

Location: Zurich Town / Ville.

Current Time: Jul 28, 2014 at 12:38:11 PM

Latest Report: Jul 28, 2014 at 11:00 AM


Visibility: N/A

Pressure: 29.86 "Hg

Humidity: 74%

Dew point: 60 °F

Location of StäfaLocation

Historic Weather in Stäfa — Graph

°F

Stäfa temperature yesterday

Maximum temperature yesterday: 65 °F (at 2:00 PM)
Minimum temperature yesterday: 59 °F (at 5:00 AM)
Average temperature yesterday: 62 °F

Past Weeks' High & Low Weather Summary

 TemperatureHumidityPressure
High87 °F (Jul 19, 6:00 PM)99% (Jul 23, 1:00 AM)30.19 "Hg (Jul 23, 1:00 AM)
Low56 °F (Jul 16, 6:00 AM)25% (Jul 18, 3:00 PM)29.78 "Hg (Jul 20, 3:00 AM)
Average66 °F74%29.97 "Hg
* Reported Jul 13 11:00 AM — Jul 28 11:00 AM, Stäfa, Weather by CustomWeather, © 2014

Note: Actual official high and low records may vary slightly from our data, if they occured in-between our weather recording intervals... More about our weather records

Advertising

Stäfa weather history for previous 24 hours

 ConditionsComfort  
Time TempWeatherWind HumidityBarometerVisibility
11:00 AM
Jul 28
69 °FMild.2 mph74%29.86 "HgN/A
10:00 AM67 °FMild.3 mph83%29.89 "HgN/A
9:00 AM64 °FMild.2 mph85%29.91 "HgN/A
8:00 AM62 °FPassing clouds.1 mph94%29.92 "HgN/A
7:00 AM59 °FCool.1 mph95%29.94 "HgN/A
6:00 AM59 °FCool.1 mph97%29.94 "HgN/A
5:00 AM60 °FCool.2 mph96%29.94 "HgN/A
4:00 AM60 °FCool.2 mph96%29.96 "HgN/A
3:00 AM61 °FCool.2 mph95%29.97 "HgN/A
2:00 AM62 °FCool.1 mph91%29.98 "HgN/A
1:00 AM62 °FMild.2 mph91%30.01 "HgN/A
12:00 AM63 °FMild.No wind90%30.01 "HgN/A
11:00 PM
Jul 27
63 °FMild.1 mph89%30.02 "HgN/A
10:00 PM63 °FMild.2 mph89%30.02 "HgN/A
9:00 PM63 °FMild.1 mph91%30.02 "HgN/A
8:00 PM64 °FOvercast.2 mph85%30.01 "HgN/A
7:00 PM65 °FMild.2 mph84%30.01 "HgN/A
6:00 PM65 °FMild.3 mph84%30.01 "HgN/A
5:00 PM65 °FMild.2 mph88%30.01 "HgN/A
4:00 PM64 °FMild.5 mph87%30.03 "HgN/A
3:00 PM65 °FMild.7 mph85%30.04 "HgN/A
2:00 PM65 °FMild.5 mph80%30.04 "HgN/A
1:00 PM63 °FMild.6 mph88%30.04 "HgN/A
12:00 PM63 °FMild.3 mph90%30.05 "HgN/A
Weather by CustomWeather, © 2014

See weather overviewHow to use our weather pages